PROFILE

 METAR AND TAF INFORMATION
ADDS - METARS form results

(1514 UTC 22 January 2019)
http://aviationweather.gov/metar/data/
 
LEBL 221500Z 30004KT 240V360 9999 FEW050 09/M00 Q1009 NOSIG
LEBL 221430Z 20004KT 130V250 9999 FEW030 09/00 Q1009 NOSIG
TAF LEBL 221100Z 2212/2312 32010KT 9999 SCT025 TX12/2212Z TN04/2306Z TEMPO 2212/2222 34012G22KT TEMPO 2308/2312 RA BKN025 

 AIRPORT MAP

 RUNWAY INFORMATION
Runway 02 Runway length 8333 ft Runway width 148 ft
Runway elevation 7 ft Runway displaced threshold 131 ft Runway heading 19
Runway 20 Runway length 8333 ft Runway width 148 ft
Runway elevation 12 ft Runway displaced threshold 0 ft Runway heading 199
Runway 07L Runway length 11654 ft Runway width 148 ft
Runway elevation 8 ft Runway displaced threshold 295 ft Runway heading 66
Runway 25R Runway length 11654 ft Runway width 148 ft
Runway elevation 10 ft Runway displaced threshold 0 ft Runway heading 246
Runway 07R Runway length 8727 ft Runway width 197 ft
Runway elevation 8 ft Runway displaced threshold 0 ft Runway heading 66
Runway 25L Runway length 8727 ft Runway width 197 ft
Runway elevation 8 ft Runway displaced threshold 0 ft Runway heading 246

 AIRPORT FREQUENCIES
Type APP Name APP Frequency 119.1 MHZ
Type ATIS Name ATIS Frequency 118.65 MHZ
Type CLD Name CLNC DEL Frequency 121.8 MHZ
Type GND Name GND Frequency 121.65 MHZ
Type TWR Name TWR Frequency 118.1 MHZ

 AIRPORT NEAR NAVIGATION AIDS
Type VOR-DME Name Barcelona Frequency 116700 KHZ
Type VOR-DME Name El Prat Frequency 114300 KHZ
Type VOR-DME Name Sabadell Frequency 112000 KHZ
Type NDB Name Villanueva Frequency 380 KHZ